A/2019 G4

Japanese version
Home page
Updated on May 19, 2019

---------------------------------------------------------------------

* Profile

Discovery Date April 9, 2019
Magnitude 21.4 mag
Discoverer Pan-STARRS 1 telescope (Haleakala)

* Orbital Elements

Epoch 2018 Oct. 9.0 TT = JDT 2458400.5
T 2018 Sept. 20.51678 TT                                MPCW
q   5.8721167            (2000.0)            P               Q
z  -0.0013484      Peri.  288.37191     -0.74406543     -0.43704801
 +/-0.0016495      Node   130.48804     +0.04824160     +0.71923725
e   1.0079181      Incl.  138.36132     -0.66636280     +0.54008038
From 15 observations 2019 Apr. 9-25, mean residual 0".4.

* Magnitudes Graph

        H = 13.0  G = 0.15

---------------------------------------------------------------------

The orbital elements are published on M.P.E.C. 2019-J142.
The magnitudes graphs are made with Comet for Windows.

---------------------------------------------------------------------

Copyright(C) Seiichi Yoshida (comet@aerith.net). All rights reserved.